EW2725 Weather Reports


Display with metric or nautical units.
time (UTC)temp
F
wind
direction
speed
MPH
gust
MPH
rain 1hr
in
rain 24hr
in
rain mn
in
humidity
%
barometer
mb
20260503212006 53 0 0.0 0.0 0.00 0.31 0.04 45 1006.3
20260503211614 53 340 8.0 0.0 0.00 0.00 0.04 44 1100.1
20260503211505 53 0 0.0 0.0 0.00 0.31 0.04 43 1006.3
20260503210109 53 304 5.0 0.0 0.00 0.00 0.04 48 1100.1
20260503205006 53 0 0.0 0.0 0.00 0.31 0.04 46 1005.9
20260503204511 53 293 6.0 0.0 0.00 0.00 0.04 47 1100.1
20260503203505 53 0 0.0 0.0 0.00 0.31 0.04 47 1005.8
20260503203011 53 251 7.0 0.0 0.00 0.00 0.04 47 1100.1
20260503201641 53 298 7.0 0.0 0.00 0.00 0.04 49 1100.1
20260503201005 54 0 0.0 0.0 0.00 0.31 0.04 47 1005.6
20260503200505 54 0 0.0 0.0 0.00 0.31 0.04 50 1005.6
20260503200010 53 294 7.0 0.0 0.00 0.00 0.04 51 1100.1
20260503200006 53 0 0.0 0.0 0.00 0.31 0.04 50 1005.6
20260503194645 52 49 7.0 0.0 0.00 0.00 0.04 52 1100.1
20260503194005 52 0 0.0 0.0 0.00 0.31 0.04 55 1005.7
20260503193506 52 0 0.0 0.0 0.00 0.31 0.04 55 1005.7
20260503193138 51 292 7.0 0.0 0.00 0.00 0.04 54 1100.1
20260503191640 51 335 8.0 0.0 0.00 0.00 0.04 55 1100.1
20260503191006 51 0 0.0 0.0 0.00 0.31 0.04 56 1005.8
20260503190151 52 329 6.0 0.0 0.00 0.00 0.04 55 1100.1
20260503185005 50 0 0.0 0.0 0.00 0.31 0.04 59 1005.8
20260503184632 50 313 6.0 0.0 0.00 0.00 0.04 58 1100.1
20260503184505 50 0 0.0 0.0 0.00 0.31 0.04 59 1005.9
20260503184006 49 0 0.0 0.0 0.00 0.31 0.04 59 1006.0
20260503183505 49 0 0.0 0.0 0.00 0.31 0.04 60 1006.0
20260503183121 49 355 8.0 0.0 0.00 0.00 0.04 60 1100.1
20260503182006 49 0 0.0 0.0 0.00 0.31 0.04 61 1005.9
20260503181612 49 297 8.0 0.0 0.00 0.00 0.04 61 1100.1
20260503181505 49 0 0.0 0.0 0.00 0.31 0.04 62 1005.9
20260503180115 49 327 7.0 0.0 0.00 0.00 0.04 65 1100.1
20260503180005 49 0 0.0 0.0 0.00 0.31 0.04 66 1005.9
20260503175506 49 0 0.0 0.0 0.00 0.31 0.04 67 1005.9
20260503174607 49 349 8.0 0.0 0.00 0.00 0.04 65 1100.1
20260503174005 50 0 0.0 0.0 0.00 0.31 0.04 66 1005.7
20260503173506 50 0 0.0 0.0 0.00 0.31 0.04 66 1005.7
20260503173013 49 275 10.0 0.0 0.00 0.00 0.04 64 1100.1
20260503172505 51 0 0.0 0.0 0.00 0.31 0.04 67 1005.5
20260503172006 51 0 0.0 0.0 0.00 0.31 0.04 66 1005.5
20260503171611 50 238 6.0 0.0 0.00 0.00 0.04 68 1100.1
20260503171006 49 0 0.0 0.0 0.00 0.31 0.04 73 1005.5
20260503170505 49 0 0.0 0.0 0.00 0.31 0.04 72 1005.5
20260503170125 48 298 8.0 0.0 0.00 0.00 0.04 69 1100.1
20260503160136 48 327 8.0 0.0 0.00 0.00 0.04 71 1100.1
20260503151006 46 0 0.0 0.0 0.00 0.31 0.04 83 1005.1
20260503150506 46 0 0.0 0.0 0.00 0.31 0.04 83 1005.1
20260503150111 46 333 7.0 0.0 0.00 0.00 0.04 79 1100.1
20260503130128 46 5 6.0 0.0 0.00 0.00 0.04 78 1100.1
20260503120129 44 307 3.0 0.0 0.00 0.00 0.04 86 1100.1
20260503110130 44 336 1.0 0.0 0.00 0.00 0.04 86 1100.1
20260503090505 44 0 0.0 0.0 0.01 0.31 0.04 95 1006.3
20260503090112 45 318 1.0 0.0 0.00 0.00 0.04 88 1100.1
20260503081508 45 233 2.0 0.0 0.00 0.00 0.04 89 1100.1
20260503080505 45 0 0.0 0.0 0.00 0.30 0.03 95 1006.9
20260503072505 46 0 0.0 0.0 0.01 0.30 0.03 95 1007.4
20260503071629 46 233 2.0 0.0 0.00 0.00 0.03 91 1100.1
20260503070505 47 358 0.0 0.0 0.01 0.30 0.03 95 1007.5
20260503070104 47 233 3.0 0.0 0.00 0.00 0.03 91 1100.1
20260503060105 48 219 0.0 0.0 0.00 0.00 0.02 91 1100.1
20260503054515 48 219 0.0 0.0 0.00 0.00 0.01 91 1100.1
20260503053505 48 0 0.0 0.0 0.00 0.28 0.01 95 1008.6
20260503053121 48 219 0.0 0.0 0.00 0.00 0.00 91 1100.1
20260503052504 48 0 0.0 0.0 0.01 0.28 0.01 95 1008.7
20260503051624 48 219 0.0 0.0 0.00 0.00 0.00 91 1100.1
20260503050505 48 358 0.0 0.0 0.01 0.28 0.01 95 1009.0
20260503050115 48 219 0.0 0.0 0.00 0.00 0.00 91 1100.1
20260503045504 48 358 0.0 0.0 0.01 0.28 0.01 95 1009.1
20260503045005 48 358 0.0 0.0 0.02 0.28 0.01 95 1009.2
20260503044611 48 219 1.0 0.0 0.00 0.00 0.00 91 1100.1
20260503044505 48 358 0.0 0.0 0.03 0.28 0.01 95 1009.3
20260503044005 48 357 0.0 0.0 0.03 0.28 0.01 95 1009.3
20260503043505 48 359 0.0 0.0 0.04 0.28 0.01 94 1009.4
20260503043134 48 209 1.0 0.0 0.00 0.00 0.32 91 1100.1
20260503043005 48 359 0.0 0.0 0.03 0.27 0.00 94 1009.5
20260503042005 48 359 0.0 0.0 0.04 0.27 0.00 94 1009.6
20260503041634 48 209 1.0 0.0 0.00 0.00 0.31 91 1100.1
20260503040504 48 359 0.0 0.0 0.05 0.27 0.00 94 1009.7
20260503040011 48 209 0.0 0.0 0.00 0.00 0.31 91 1100.1
20260503040005 48 358 0.0 0.0 0.05 0.27 0.00 94 1009.6
20260503035505 48 358 0.0 0.0 0.05 0.27 0.27 94 1009.6
20260503035005 48 358 0.0 0.0 0.05 0.26 0.26 94 1009.6
20260503034633 48 209 0.0 0.0 0.00 0.00 0.28 91 1100.1
20260503034505 48 359 0.0 0.0 0.04 0.25 0.25 94 1009.6
20260503034005 48 0 0.0 0.0 0.04 0.25 0.25 94 1009.7
20260503033505 48 0 0.0 0.0 0.03 0.24 0.24 94 1009.7
20260503033137 48 209 0.0 0.0 0.00 0.00 0.28 90 1100.1
20260503033005 48 0 0.0 0.0 0.04 0.24 0.24 94 1009.6
20260503031555 48 209 0.0 0.0 0.00 0.00 0.26 90 1100.1
20260503031504 48 358 0.0 0.0 0.04 0.23 0.23 94 1009.6
20260503031005 48 359 0.0 0.0 0.04 0.23 0.23 94 1009.6
20260503030054 48 191 0.0 0.0 0.00 0.00 0.26 90 1100.1
20260503030005 48 0 0.0 0.0 0.05 0.22 0.22 94 1009.9
20260503024636 48 191 0.0 0.0 0.00 0.00 0.25 90 1100.1
20260503024504 48 0 0.0 0.0 0.07 0.21 0.21 94 1010.1
20260503023505 48 0 0.0 0.0 0.09 0.21 0.21 94 1010.2
20260503023010 48 191 0.0 0.0 0.00 0.00 0.24 90 1100.1
20260503022505 48 0 0.0 0.0 0.08 0.20 0.20 94 1010.3
20260503021600 48 191 1.0 0.0 0.00 0.00 0.22 90 1100.1
20260503021505 48 0 0.0 0.0 0.08 0.19 0.19 93 1010.6
20260503020005 48 0 0.0 0.0 0.07 0.17 0.17 93 1010.5
20260503015504 49 0 0.0 0.0 0.07 0.16 0.16 93 1010.6
20260503015005 49 0 0.0 0.0 0.06 0.15 0.15 93 1010.6
20260503014506 48 191 0.0 0.0 0.00 0.00 0.17 90 1100.1
20260503014005 49 0 0.0 0.0 0.06 0.13 0.13 93 1010.8
20260503013504 49 0 0.0 0.0 0.05 0.12 0.12 93 1010.7
20260503013101 48 191 0.0 0.0 0.00 0.00 0.15 90 1100.1
20260503012505 49 0 0.0 0.0 0.06 0.12 0.12 93 1010.8
20260503012005 49 0 0.0 0.0 0.05 0.11 0.11 93 1010.8
20260503011636 49 191 0.0 0.0 0.00 0.00 0.14 89 1100.1
20260503011504 49 0 0.0 0.0 0.05 0.11 0.11 93 1010.8
20260503011005 49 0 0.0 0.0 0.06 0.11 0.11 93 1010.9
20260503010008 49 191 0.0 0.0 0.00 0.00 0.13 89 1100.1
20260503010004 49 359 0.0 0.0 0.05 0.10 0.10 92 1010.9
20260503005504 49 0 0.0 0.0 0.04 0.09 0.09 92 1010.9
20260503005005 49 0 0.0 0.0 0.04 0.09 0.09 92 1011.0
20260503004602 49 191 0.0 0.0 0.00 0.00 0.10 89 1100.1
20260503003505 49 0 0.0 0.0 0.03 0.07 0.07 92 1010.8
20260503003105 49 191 0.0 0.0 0.00 0.00 0.09 89 1100.1
20260503003005 49 0 0.0 0.0 0.03 0.07 0.07 92 1010.8
20260503002504 49 0 0.0 0.0 0.02 0.06 0.06 92 1010.8
20260503002005 49 0 0.0 0.0 0.03 0.06 0.06 91 1010.8
20260503001611 49 213 0.0 0.0 0.00 0.00 0.08 88 1100.1
20260503001504 49 0 0.0 0.0 0.04 0.06 0.06 91 1010.8
20260503001005 49 0 0.0 0.0 0.04 0.05 0.05 91 1010.7
20260503000505 49 0 0.0 0.0 0.04 0.05 0.05 91 1010.7
20260503000112 49 213 2.0 0.0 0.00 0.00 0.07 88 1100.1
20260502235505 49 0 0.0 0.0 0.05 0.05 0.05 90 1011.0
20260502234525 49 200 0.0 0.0 0.00 0.00 0.06 87 1100.1
20260502234505 50 0 0.0 0.0 0.04 0.04 0.04 90 1010.8
20260502233506 50 0 0.0 0.0 0.04 0.04 0.04 90 1010.7
20260502233029 49 198 1.0 0.0 0.00 0.00 0.05 87 1100.1
20260502233005 50 0 0.0 0.0 0.04 0.04 0.04 89 1010.7
20260502232005 50 0 0.0 0.0 0.03 0.03 0.03 88 1010.8
20260502231607 50 188 1.0 0.0 0.00 0.00 0.03 85 1100.1
20260502230505 51 0 0.0 0.0 0.01 0.01 0.01 86 1010.8
20260502230105 50 211 1.0 0.0 0.00 0.00 0.01 82 1100.1
20260502225504 51 0 0.0 0.0 0.00 0.00 0.00 84 1010.7
20260502225005 51 0 0.0 0.0 0.00 0.00 0.00 84 1010.6
20260502224603 51 183 3.0 0.0 0.00 0.00 0.00 80 1100.1
20260502224005 51 0 0.0 0.0 0.00 0.00 0.00 83 1010.5
20260502223118 51 173 2.0 0.0 0.00 0.00 0.00 79 1100.1
20260502223005 51 0 0.0 0.0 0.00 0.00 0.00 82 1010.5
20260502222505 51 0 0.0 0.0 0.00 0.00 0.00 82 1010.4
20260502222005 52 0 0.0 0.0 0.00 0.00 0.00 82 1010.5
20260502221617 51 178 3.0 0.0 0.00 0.00 0.00 79 1100.1
20260502220505 52 0 0.0 0.0 0.00 0.00 0.00 81 1010.4
20260502220118 52 228 4.0 0.0 0.00 0.00 0.00 78 1100.1
20260502220005 52 0 0.0 0.0 0.00 0.00 0.00 81 1010.5
20260502214630 52 188 3.0 0.0 0.00 0.00 0.00 77 1100.1
20260502214005 52 0 0.0 0.0 0.00 0.00 0.00 81 1010.6
20260502213131 52 188 3.0 0.0 0.00 0.00 0.00 77 1100.1
20260502213007 52 0 0.0 0.0 0.00 0.00 0.00 80 1010.6
20260502212507 52 0 0.0 0.0 0.00 0.00 0.00 80 1010.7